Home > Weather > Downey > Past weeks

Flag for USA Past Weather in Downey, California, USA — Yesterday and Last 2 Weeks

Now
65 °F

Overcast.


Feels Like: 65 °F
Forecast: 61 / 80 °F
Wind: No wind

Location: Long Beach Airport

Current Time: Aug 27, 2016 at 1:34:53 AM

Latest Report: Aug 27, 2016 at 12:53 AM


Visibility: 10 mi

Pressure: 29.96 "Hg

Humidity: 81%

Dew Point: 59 °F

Location of DowneyLocation

Past Weather in Downey — Graph

°F

Downey Temperature Yesterday

Maximum temperature yesterday: 73 °F (at 1:53 PM)
Minimum temperature yesterday: 65 °F (at 7:53 AM)
Average temperature yesterday: 68 °F

High & Low Weather Summary for the Past Weeks

 TemperatureHumidityPressure
High94 °F (Aug 15, 1:53 PM)97% (Aug 17, 7:00 AM)30.04 "Hg (Aug 17, 7:00 AM)
Low61 °F (Aug 17, 7:00 AM)30% (Aug 16, 4:53 PM)29.79 "Hg (Aug 17, 6:53 PM)
Average72 °F69%29.91 "Hg
* Reported Aug 11 11:53 PM — Aug 26 11:53 PM, Downey, Weather by CustomWeather, © 2016

Note: Actual official high and low records may vary slightly from our data, if they occured in-between our weather recording intervals... More about our weather records

Advertising

Downey Weather History for the Previous 24 Hours

Scroll right to see more
 ConditionsComfort  
Time TempWeatherWind HumidityBarometerVisibility
11:53 PM
Fri, Aug 26
65 °FClear.No wind78%29.96 "Hg10 mi
10:53 PM65 °FClear.3 mph81%29.96 "Hg10 mi
9:53 PM66 °FClear.6 mph75%29.96 "Hg10 mi
8:53 PM66 °FClear.9 mph75%29.95 "Hg10 mi
7:53 PM68 °FSunny.9 mph68%29.93 "Hg10 mi
6:53 PM70 °FSunny.9 mph66%29.92 "Hg10 mi
5:53 PM73 °FSunny.8 mph59%29.92 "Hg6 mi
4:53 PM72 °FSunny.8 mph61%29.92 "Hg10 mi
3:53 PM73 °FSunny.8 mph57%29.93 "Hg10 mi
2:53 PM72 °FSunny.8 mph57%29.94 "Hg10 mi
1:53 PM73 °FSunny.9 mph55%29.96 "Hg10 mi
12:53 PM71 °FSunny.9 mph59%29.97 "Hg10 mi
11:53 AM69 °FSunny.N/A63%29.99 "Hg10 mi
10:53 AM68 °FOvercast.7 mph65%30.00 "Hg10 mi
9:53 AM67 °FOvercast.5 mph68%29.99 "Hg10 mi
8:53 AM66 °FOvercast.6 mph70%29.98 "Hg10 mi
7:53 AM65 °FOvercast.6 mph73%29.96 "Hg10 mi
6:53 AM66 °FOvercast.3 mph73%29.95 "Hg10 mi
5:53 AM66 °FOvercast.6 mph73%29.93 "Hg10 mi
4:53 AM66 °FOvercast.6 mph73%29.92 "Hg10 mi
3:53 AM67 °FOvercast.5 mph73%29.91 "Hg10 mi
2:53 AM67 °FOvercast.5 mph73%29.91 "Hg10 mi
1:53 AM67 °FOvercast.3 mph73%29.92 "Hg10 mi
Weather by CustomWeather, © 2016

See weather overviewHow to use our weather pages